Location: Julian California
(33.0790°N, 116.6010°W)
Time: 13:08:46
(UTC-07:00)

Cosmos 1697 Rocket - Pass Details

Date: 30 March 2019
Orbit: 834 x 842 km, 71.0° (Epoch: 22 April)

Event Time Altitude Azimuth Distance (km) Brightness Sun altitude
Rises 04:50:59 0° 334° (NNW) 3,384 5.8 -22.5°
Reaches altitude 10° 04:53:28 10° 330° (NNW) 2,446 5.0 -22.0°
Maximum altitude 04:58:54 54° 254° (WSW) 1,001 2.7 -20.9°
Drops below altitude 10° 05:04:19 10° 178° (S) 2,429 4.9 -19.8°
Sets 05:06:47 0° 173° (S) 3,359 5.7 -19.3°
